This demonstration page uses our WeatherBlox Daily Observations layout. Learn more.

Left ArrowRight Arrow

Hourly Observations for December 15, 2019

Temp ( °F °C ) Dew Point ( °F °C ) Humidity (%) Winds ( mph kmh ) Pressure ( in mb ) Visibility ( mi km ) Precip ( " mm )
12:56 am 00:56 Mostly Cloudy 18 -8 9 -13 68 68 N 3 6 30.14 1021 10 16 0.00 0.00
1:56 am 01:56 Mostly Cloudy 18 -8 7 -14 62 62 NE 5 7 30.13 1020 10 16 0.00 0.00
2:56 am 02:56 Mostly Cloudy 16 -9 9 -13 73 73 VRB 6 9 30.13 1020 10 16 0.00 0.00
3:56 am 03:56 Mostly Cloudy 16 -9 9 -13 73 73 NE 5 7 30.14 1021 10 16 0.00 0.00
4:56 am 04:56 Mostly Cloudy 16 -9 9 -13 73 73 NNE 5 7 30.15 1021 10 16 0.00 0.00
5:56 am 05:56 Mostly Cloudy 16 -9 9 -13 73 73 N 5 7 30.16 1022 10 16 0.00 0.00
6:38 am 06:38 Cloudy with Light Snow 16 -9 9 -13 73 73 NNE 6 9 30.17 1022 6 10 0.00 0.00
6:56 am 06:56 Cloudy with Light Snow 16 -9 9 -13 73 73 NNE 6 9 30.17 1022 5 8 0.00 0.00
7:26 am 07:26 Mostly Clear with Mist and Fog N/A N/A N/A ENE 7 11 N/A 7 11 0.00 0.00
7:56 am 07:56 Cloudy with Light Snow 16 -9 10 -12 79 79 ENE 6 9 30.17 1022 4 6 0.00 0.00
8:26 am 08:26 Partly Cloudy with Mist and Fog N/A N/A N/A ENE 7 11 N/A 7 11 0.00 0.00
8:56 am 08:56 Cloudy with Light Snow 16 -9 12 -11 86 86 ENE 6 9 30.16 1022 3 4 0.00 0.00
9:56 am 09:56 Cloudy with Light Snow 16 -9 12 -11 86 86 ENE 6 9 30.17 1022 3 5 0.00 0.00
10:56 am 10:56 Cloudy with Light Snow 18 -8 12 -11 79 79 E 5 7 30.17 1022 2 4 0.00 0.00
11:56 am 11:56 Cloudy with Light Snow 19 -7 14 -10 79 79 ENE 5 7 30.15 1021 3 5 0.00 0.00
12:56 pm 12:56 Cloudy with Light Snow 19 -7 14 -10 79 79 NE 5 7 30.13 1020 3 5 0.00 0.00
1:56 pm 13:56 Cloudy with Light Snow 21 -6 16 -9 80 80 ENE 5 7 30.12 1020 3 5 0.00 0.00
2:56 pm 14:56 Cloudy with Light Snow 21 -6 16 -9 80 80 NNE 3 6 30.11 1020 6 10 0.00 0.00
3:36 pm 15:36 Cloudy 21 -6 16 -9 80 80 NE 5 7 30.11 1020 10 16 0.00 0.00
3:56 pm 15:56 Cloudy 21 -6 16 -9 80 80 NNE 5 7 30.11 1020 10 16 0.00 0.00
4:56 pm 16:56 Cloudy 21 -6 16 -9 80 80 NE 5 7 30.13 1020 10 16 0.00 0.00
5:56 pm 17:56 Cloudy 21 -6 16 -9 80 80 Calm 30.16 1021 10 16 0.00 0.00
6:56 pm 18:56 Cloudy 21 -6 16 -9 80 80 NNE 3 6 30.17 1022 10 16 0.00 0.00
7:56 pm 19:56 Mostly Cloudy 21 -6 16 -9 80 80 N 3 6 30.19 1022 10 16 0.00 0.00
8:56 pm 20:56 Mostly Cloudy 21 -6 16 -9 80 80 Calm 30.19 1022 10 16 0.00 0.00
9:56 pm 21:56 Cloudy 21 -6 16 -9 80 80 Calm 30.19 1022 10 16 0.00 0.00
10:56 pm 22:56 Mostly Cloudy 21 -6 18 -8 86 86 Calm 30.20 1023 10 16 0.00 0.00
11:56 pm 23:56 Cloudy 21 -6 18 -8 86 86 VRB 3 6 30.22 1023 10 16 0.00 0.00

Powered by AerisWeather